User: anonymous   Login
Location: Bonn
(50.7330°N, 7.1000°E)
Time: 11:45:14
(UTC+02:00)
Language:

Cosmos 1933 Rocket - Orbit

View from above orbital plane
View from above orbital plane
View from above satellite
View from above satellite

Ground track
Ground track

The orbit data is extracted from the following two-line orbital elements,

1 18959U 88020B   15089.71472878  .00000583  00000-0  68627-4 0  9996
2 18959 082.5367 307.0963 0015529 288.2731 183.8793 14.83077359460596
Epoch (UTC): 30 March 2015 17:09:12
Eccentricity: 0.0015529
inclination: 82.5367°
perigee height: 609 km
apogee height: 630 km
right ascension of ascending node: 307.0963°
argument of perigee: 288.2731°
revolutions per day: 14.83077359
mean anomaly at epoch: 183.8793°
orbit number at epoch: 46059

The dashed part of the orbit path shows where the satellite is in the earth's shadow,  

DLR